Home   Weather   Hartford   Past weeks

Flag for USA Past Weather in Hartford, Connecticut, USA — Yesterday and Last 2 Weeks

45 °F


Feels Like: 42 °F
Forecast: 46 / 53 °F
Wind: 6 mph from Northwest

Location: Hartford-Brainard Airport

Current Time: Oct 22, 2016 at 5:31:55 PM

Latest Report: Oct 22, 2016 at 4:53 PM

Visibility: 10 mi

Pressure: 29.41 "Hg

Humidity: 76%

Dew Point: 38 °F

Location of HartfordLocation

Past Weather in Hartford — Graph


Hartford Temperature Yesterday

Maximum temperature yesterday: 77 °F (at 12:57 PM)
Minimum temperature yesterday: 60 °F (at 12:00 AM)
Average temperature yesterday: 66 °F

High & Low Weather Summary for the Past Weeks

High82 °F (Oct 18, 1:53 PM)100% (Oct 7, 11:53 PM)30.50 "Hg (Oct 7, 11:53 PM)
Low33 °F (Oct 15, 6:53 AM)32% (Oct 10, 3:53 PM)29.30 "Hg (Oct 22, 12:53 PM)
Average58 °F78%30.08 "Hg
* Reported Oct 7 3:53 PM — Oct 22 3:53 PM, Hartford, Weather by CustomWeather, © 2016

Note: Actual official high and low records may vary slightly from our data, if they occured in-between our weather recording intervals... More about our weather records


Hartford Weather History for the Previous 24 Hours

Scroll right to see more
Time TempWeatherWind HumidityBarometerVisibility
3:53 PM
Sat, Oct 22
45 °FLight rain. Mostly cloudy.12 mph80%29.38 "Hg8 mi
2:53 PM46 °FLight rain. Mostly cloudy.10 mph83%29.34 "Hg10 mi
1:53 PM50 °FOvercast.17 mph74%29.32 "Hg10 mi
12:53 PM50 °FMostly cloudy.9 mph86%29.30 "Hg10 mi
11:53 AM49 °FLight rain. Mostly cloudy.13 mph90%29.31 "Hg10 mi
10:53 AM51 °FLight rain. Overcast.10 mph80%29.34 "Hg10 mi
9:53 AM52 °FOvercast.12 mph80%29.33 "Hg10 mi
8:53 AM53 °FOvercast.8 mph80%29.34 "Hg10 mi
7:53 AM54 °FOvercast.8 mph80%29.34 "Hg10 mi
6:53 AM56 °FOvercast.7 mph84%29.33 "Hg10 mi
5:53 AM57 °FOvercast.5 mph83%29.33 "Hg10 mi
4:53 AM58 °FOvercast.5 mph87%29.34 "Hg10 mi
3:53 AM60 °FMostly cloudy.8 mph86%29.34 "Hg10 mi
3:00 AM66 °FMostly cloudy.10 mph93%29.34 "Hg10 mi
2:00 AM66 °FFog.No wind100%29.36 "Hg6 mi
12:53 AM67 °FMostly cloudy.5 mph97%29.37 "Hg10 mi
11:53 PM
Fri, Oct 21
67 °FFog.6 mph100%29.39 "Hg4 mi
10:53 PM68 °FLow clouds.No wind100%29.42 "Hg8 mi
9:53 PM68 °FLow clouds.No wind100%29.44 "Hg7 mi
9:01 PM68 °FFog.No wind100%29.45 "Hg2 mi
7:53 PM68 °FFog.No wind100%29.48 "Hg2 mi
6:53 PM69 °FLight rain. Mostly cloudy.3 mph100%29.49 "Hg10 mi
5:53 PM72 °FOvercast.3 mph87%29.51 "Hg10 mi
Weather by CustomWeather, © 2016

See weather overviewHow to use our weather pages